Flag for Germany Weather past 2 weeks in Wunstorf, Lower Saxony, Germany

Now
90 °F

Hot.


Feels Like: 90 °F
Forecast: 73 / 91 °F
Wind: 16 mph from Southeast

Location: Wunstorf Airport

Current Time: Jul 2, 2015 at 7:33:06 PM

Latest Report: Jul 2, 2015 at 6:20 PM


Visibility: N/A

Pressure: 30.12 "Hg

Humidity: 38%

Dew point: 61 °F

Location of WunstorfLocation

Historic Weather in Wunstorf — Graph

°F

Wunstorf temperature yesterday

Maximum temperature yesterday: 84 °F (at 4:20 PM)
Minimum temperature yesterday: 57 °F (at 5:20 AM)
Average temperature yesterday: 72 °F

Past Weeks' High & Low Weather Summary

 TemperatureHumidityPressure
High90 °F (Jul 2, 3:20 PM)100% (Jun 18, 3:20 AM)30.24 "Hg (Jun 18, 3:20 AM)
Low48 °F (Jun 22, 11:20 PM)34% (Jun 30, 6:20 PM)29.65 "Hg (Jun 22, 9:20 PM)
Average62 °F70%30.04 "Hg
* Reported Jun 17 6:20 PM — Jul 2 6:20 PM, Wunstorf, Weather by CustomWeather, © 2015

Note: Actual official high and low records may vary slightly from our data, if they occured in-between our weather recording intervals... More about our weather records

Advertising

Wunstorf weather history for previous 24 hours

 ConditionsComfort  
Time TempWeatherWind HumidityBarometerVisibility
6:20 PM
Thu, Jul 2
90 °FHot.16 mph38%30.12 "HgN/A
5:20 PM90 °FHot.15 mph38%30.12 "HgN/A
4:20 PM90 °FHot.14 mph41%30.12 "HgN/A
3:20 PM90 °FHot.15 mph41%30.12 "HgN/A
2:20 PM88 °FWarm.14 mph40%30.15 "HgN/A
1:20 PM88 °FWarm.14 mph40%30.15 "HgN/A
12:20 PM86 °FWarm.15 mph43%30.15 "HgN/A
11:20 AM82 °FWarm.15 mph45%30.15 "HgN/A
10:20 AM79 °FWarm.14 mph51%30.15 "HgN/A
9:20 AM75 °FMild.13 mph50%30.15 "HgN/A
8:20 AM72 °FMild.14 mph53%30.15 "HgN/A
7:20 AM68 °FMild.10 mph60%30.15 "HgN/A
6:20 AM64 °FMild.10 mph68%30.15 "HgN/A
5:20 AM61 °FCool.6 mph72%30.15 "HgN/A
4:20 AM63 °FMild.6 mph68%30.15 "Hg4 mi
3:20 AM64 °FMild.7 mph64%30.15 "Hg4 mi
2:20 AM66 °FMild.8 mph60%30.15 "Hg4 mi
1:20 AM68 °FMild.9 mph56%30.15 "Hg4 mi
12:20 AM70 °FMild.6 mph53%30.15 "Hg4 mi
11:20 PM
Wed, Jul 1
72 °FMild.7 mph50%30.15 "Hg4 mi
10:20 PM75 °FMild.8 mph41%30.12 "Hg4 mi
9:20 PM77 °FWarm.8 mph42%30.12 "Hg4 mi
8:20 PM81 °FPleasantly warm.10 mph34%30.12 "Hg4 mi
7:20 PM82 °FPassing clouds.12 mph35%30.12 "HgN/A
Weather by CustomWeather, © 2015

See weather overviewHow to use our weather pages